sat.trackr.live / text

‹ back to catalog

PAKTES 1A

NORAD 43529 · 2018-056A

PAYLOAD ACTIVE UNKNOWN

§ Identity

Operator
Country
PAKI
Launch date
2018-07-09
Launch site
JSC
Launch vehicle
Mass (kg)
RCS (m²)

External: N2YO · Heavens-Above · Gunter

§ Orbital elements

Epoch: 2026-05-25T04:13:28.755264Z

Period
96.07 min
Inclination
98.1246°
Eccentricity
0.0021852
Mean motion
14.98951501 rev/d
Perigee alt
555.0 km
Apogee alt
585.3 km
Semi-major
6,948.3 km
B*
1.9523e-4
RAAN
300.6845°
Arg perigee
181.0335°
Mean anomaly
179.0845°
Rev number
42,847

§ Raw data

PAKTES 1A1 43529U 18056A   26145.17602726  .00002308  00000+0  19523-3 0  99972 43529  98.1246 300.6845 0021852 181.0335 179.0845 14.98951501428472

JSON: /api/v1/satellites/43529 · /tle

For live sub-satellite position, see the globe view (requires WebGL).

§ Visibility from observer

Set your observer location to see the next 7 days of passes ≥ 10°. The values pass through the URL so the page stays shareable.

No JS? Fill the form by hand. The geolocation button needs JavaScript.

§ Radio — SatNOGS DB

ModeDescriptionDownlinkUplink
FM S Band Center 2.246 GHz
FM S-band telemetry 2.250 GHz
FM Telemetry 401.415 MHz

3 transmitters · refreshed weekly from db.satnogs.org